Year,Month,Day,Hour,Minute,Value (Times are PST for temperature in C)
2018,07,04,00,00,13.80
2018,07,04,00,01,13.80
2018,07,04,00,02,13.80
2018,07,04,00,03,13.80
2018,07,04,00,04,13.80
2018,07,04,00,05,13.80
2018,07,04,00,06,13.80
2018,07,04,00,07,13.80
2018,07,04,00,08,13.80
2018,07,04,00,09,13.80
2018,07,04,00,10,13.90
2018,07,04,00,11,13.90
2018,07,04,00,12,13.90
2018,07,04,00,13,13.90
2018,07,04,00,14,13.90
2018,07,04,00,15,13.90
2018,07,04,00,16,13.90
2018,07,04,00,17,13.90
2018,07,04,00,18,13.90
2018,07,04,00,19,13.90
2018,07,04,00,20,13.90
2018,07,04,00,21,13.90
2018,07,04,00,22,13.90
2018,07,04,00,23,13.90
2018,07,04,00,24,13.90
2018,07,04,00,25,13.90
2018,07,04,00,26,13.90
2018,07,04,00,27,13.90
2018,07,04,00,28,13.90
2018,07,04,00,29,13.90
2018,07,04,00,30,13.90
2018,07,04,00,31,13.90
2018,07,04,00,32,13.90
2018,07,04,00,33,13.90
2018,07,04,00,34,13.90
2018,07,04,00,35,13.90
2018,07,04,00,36,13.90
2018,07,04,00,37,14.00
2018,07,04,00,38,14.00
2018,07,04,00,39,14.00
2018,07,04,00,40,14.00
2018,07,04,00,41,14.00
2018,07,04,00,42,14.00
2018,07,04,00,43,14.00
2018,07,04,00,44,14.00
2018,07,04,00,45,14.00
2018,07,04,00,46,14.00
2018,07,04,00,47,14.00
2018,07,04,00,48,14.00
2018,07,04,00,49,14.10
2018,07,04,00,50,14.00
2018,07,04,00,51,14.10
2018,07,04,00,52,14.10
2018,07,04,00,53,14.10
2018,07,04,00,54,14.10
2018,07,04,00,55,14.10
2018,07,04,00,56,14.10
2018,07,04,00,57,14.10
2018,07,04,00,58,14.10
2018,07,04,00,59,14.10
2018,07,04,01,00,14.10
2018,07,04,01,01,14.10
2018,07,04,01,02,14.00
2018,07,04,01,03,14.00
2018,07,04,01,04,14.00
2018,07,04,01,05,14.00
2018,07,04,01,06,14.00
2018,07,04,01,07,14.00
2018,07,04,01,08,14.00
2018,07,04,01,09,14.00
2018,07,04,01,10,14.00
2018,07,04,01,11,14.00
2018,07,04,01,12,14.00
2018,07,04,01,13,13.90
2018,07,04,01,14,13.90
2018,07,04,01,15,13.90
2018,07,04,01,16,13.90
2018,07,04,01,17,13.90
2018,07,04,01,18,13.90
2018,07,04,01,19,13.90
2018,07,04,01,20,13.90
2018,07,04,01,21,13.90
2018,07,04,01,22,13.90
2018,07,04,01,23,13.90
2018,07,04,01,24,13.90
2018,07,04,01,25,13.90
2018,07,04,01,26,13.90
2018,07,04,01,27,13.90
2018,07,04,01,28,13.90
2018,07,04,01,29,13.90
2018,07,04,01,30,13.80
2018,07,04,01,31,13.80
2018,07,04,01,32,13.80
2018,07,04,01,33,13.80
2018,07,04,01,34,13.80
2018,07,04,01,35,13.80
2018,07,04,01,36,13.80
2018,07,04,01,37,13.80
2018,07,04,01,38,13.80
2018,07,04,01,39,13.70
2018,07,04,01,40,13.70
2018,07,04,01,41,13.70
2018,07,04,01,42,13.70
2018,07,04,01,43,13.70
2018,07,04,01,44,13.70
2018,07,04,01,45,13.70
2018,07,04,01,46,13.70
2018,07,04,01,47,13.60
2018,07,04,01,48,13.60
2018,07,04,01,49,13.60
2018,07,04,01,50,13.60
2018,07,04,01,51,13.60
2018,07,04,01,52,13.60
2018,07,04,01,53,13.60
2018,07,04,01,54,13.50
2018,07,04,01,55,13.50
2018,07,04,01,56,13.50
2018,07,04,01,57,13.50
2018,07,04,01,58,13.50
2018,07,04,01,59,13.50
2018,07,04,02,00,13.40
2018,07,04,02,01,13.40
2018,07,04,02,02,13.40
2018,07,04,02,03,13.40
2018,07,04,02,04,13.40
2018,07,04,02,05,13.40
2018,07,04,02,06,13.40
2018,07,04,02,07,13.40
2018,07,04,02,08,13.40
2018,07,04,02,09,13.40
2018,07,04,02,10,13.30
2018,07,04,02,11,13.30
2018,07,04,02,12,13.30
2018,07,04,02,13,13.30
2018,07,04,02,14,13.30
2018,07,04,02,15,13.30
2018,07,04,02,16,13.30
2018,07,04,02,17,13.30
2018,07,04,02,18,13.30
2018,07,04,02,19,13.30
2018,07,04,02,20,13.30
2018,07,04,02,21,13.30
2018,07,04,02,22,13.30
2018,07,04,02,23,13.30
2018,07,04,02,24,13.30
2018,07,04,02,25,13.30
2018,07,04,02,26,13.30
2018,07,04,02,27,13.30
2018,07,04,02,28,13.30
2018,07,04,02,29,13.30
2018,07,04,02,30,13.30
2018,07,04,02,31,13.30
2018,07,04,02,32,13.30
2018,07,04,02,33,13.30
2018,07,04,02,34,13.30
2018,07,04,02,35,13.30
2018,07,04,02,36,13.30
2018,07,04,02,37,13.30
2018,07,04,02,38,13.30
2018,07,04,02,39,13.30
2018,07,04,02,40,13.30
2018,07,04,02,41,13.30
2018,07,04,02,42,13.30
2018,07,04,02,43,13.40
2018,07,04,02,44,13.40
2018,07,04,02,45,13.40
2018,07,04,02,46,13.40
2018,07,04,02,47,13.40
2018,07,04,02,48,13.40
2018,07,04,02,49,13.40
2018,07,04,02,50,13.40
2018,07,04,02,51,13.40
2018,07,04,02,52,13.50
2018,07,04,02,53,13.50
2018,07,04,02,54,13.50
2018,07,04,02,55,13.50
2018,07,04,02,56,13.50
2018,07,04,02,57,13.50
2018,07,04,02,58,13.60
2018,07,04,02,59,13.60
2018,07,04,03,00,13.60
2018,07,04,03,01,13.60
2018,07,04,03,02,13.60
2018,07,04,03,03,13.60
2018,07,04,03,04,13.60
2018,07,04,03,05,13.60
2018,07,04,03,06,13.60
2018,07,04,03,07,13.60
2018,07,04,03,08,13.60
2018,07,04,03,09,13.60
2018,07,04,03,10,13.60
2018,07,04,03,11,13.70
2018,07,04,03,12,13.70
2018,07,04,03,13,13.70
2018,07,04,03,14,13.70
2018,07,04,03,15,13.70
2018,07,04,03,16,13.70
2018,07,04,03,17,13.70
2018,07,04,03,18,13.70
2018,07,04,03,19,13.70
2018,07,04,03,20,13.70
2018,07,04,03,21,13.60
2018,07,04,03,22,13.60
2018,07,04,03,23,13.60
2018,07,04,03,24,13.60
2018,07,04,03,25,13.60
2018,07,04,03,26,13.60
2018,07,04,03,27,13.60
2018,07,04,03,28,13.60
2018,07,04,03,29,13.60
2018,07,04,03,30,13.60
2018,07,04,03,31,13.60
2018,07,04,03,32,13.60
2018,07,04,03,33,13.60
2018,07,04,03,34,13.60
2018,07,04,03,35,13.60
2018,07,04,03,36,13.60
2018,07,04,03,37,13.60
2018,07,04,03,38,13.60
2018,07,04,03,39,13.60
2018,07,04,03,40,13.60
2018,07,04,03,41,13.60
2018,07,04,03,42,13.60
2018,07,04,03,43,13.60
2018,07,04,03,44,13.60
2018,07,04,03,45,13.60
2018,07,04,03,46,13.60
2018,07,04,03,47,13.60
2018,07,04,03,48,13.60
2018,07,04,03,49,13.60
2018,07,04,03,50,13.60
2018,07,04,03,51,13.60
2018,07,04,03,52,13.60
2018,07,04,03,53,13.60
2018,07,04,03,54,13.60
2018,07,04,03,55,13.60
2018,07,04,03,56,13.60
2018,07,04,03,57,13.60
2018,07,04,03,58,13.60
2018,07,04,03,59,13.60
2018,07,04,04,00,13.60
2018,07,04,04,01,13.60
2018,07,04,04,02,13.60
2018,07,04,04,03,13.60
2018,07,04,04,04,13.60
2018,07,04,04,05,13.60
2018,07,04,04,06,13.60
2018,07,04,04,07,13.60
2018,07,04,04,08,13.60
2018,07,04,04,09,13.60
2018,07,04,04,10,13.60
2018,07,04,04,11,13.50
2018,07,04,04,12,13.50
2018,07,04,04,13,13.50
2018,07,04,04,14,13.50
2018,07,04,04,15,13.40
2018,07,04,04,16,13.40
2018,07,04,04,17,13.40
2018,07,04,04,18,13.40
2018,07,04,04,19,13.40
2018,07,04,04,20,13.40
2018,07,04,04,21,13.30
2018,07,04,04,22,13.30
2018,07,04,04,23,13.30
2018,07,04,04,24,13.30
2018,07,04,04,25,13.30
2018,07,04,04,26,13.30
2018,07,04,04,27,13.20
2018,07,04,04,28,13.20
2018,07,04,04,29,13.20
2018,07,04,04,30,13.20
2018,07,04,04,31,13.20
2018,07,04,04,32,13.20
2018,07,04,04,33,13.20
2018,07,04,04,34,13.20
2018,07,04,04,35,13.10
2018,07,04,04,36,13.10
2018,07,04,04,37,13.10
2018,07,04,04,38,13.10
2018,07,04,04,39,13.10
2018,07,04,04,40,13.10
2018,07,04,04,41,13.10
2018,07,04,04,42,13.10
2018,07,04,04,43,13.00
2018,07,04,04,44,13.00
2018,07,04,04,45,13.00
2018,07,04,04,46,13.00
2018,07,04,04,47,13.00
2018,07,04,04,48,12.90
2018,07,04,04,49,12.90
2018,07,04,04,50,12.90
2018,07,04,04,51,12.90
2018,07,04,04,52,12.90
2018,07,04,04,53,12.90
2018,07,04,04,54,12.90
2018,07,04,04,55,12.80
2018,07,04,04,56,12.80
2018,07,04,04,57,12.80
2018,07,04,04,58,12.80
2018,07,04,04,59,12.80
2018,07,04,05,00,12.80
2018,07,04,05,01,12.80
2018,07,04,05,02,12.80
2018,07,04,05,03,12.80
2018,07,04,05,04,12.80
2018,07,04,05,05,12.80
2018,07,04,05,06,12.80
2018,07,04,05,07,12.80
2018,07,04,05,08,12.80
2018,07,04,05,09,12.80
2018,07,04,05,10,12.80
2018,07,04,05,11,12.80
2018,07,04,05,12,12.80
2018,07,04,05,13,12.80
2018,07,04,05,14,12.80
2018,07,04,05,15,12.80
2018,07,04,05,16,12.80
2018,07,04,05,17,12.80
2018,07,04,05,18,12.80
2018,07,04,05,19,12.80
2018,07,04,05,20,12.80
2018,07,04,05,21,12.90
2018,07,04,05,22,12.90
2018,07,04,05,23,12.90
2018,07,04,05,24,12.90
2018,07,04,05,25,12.90
2018,07,04,05,26,13.00
2018,07,04,05,27,13.00
2018,07,04,05,28,13.10
2018,07,04,05,29,13.10
2018,07,04,05,30,13.10
2018,07,04,05,31,13.20
2018,07,04,05,32,13.20
2018,07,04,05,33,13.30
2018,07,04,05,34,13.30
2018,07,04,05,35,13.40
2018,07,04,05,36,13.40
2018,07,04,05,37,13.50
2018,07,04,05,38,13.50
2018,07,04,05,39,13.60
2018,07,04,05,40,13.70
2018,07,04,05,41,13.70
2018,07,04,05,42,13.70
2018,07,04,05,43,13.80
2018,07,04,05,44,13.80
2018,07,04,05,45,13.80
2018,07,04,05,46,13.80
2018,07,04,05,47,13.80
2018,07,04,05,48,13.80
2018,07,04,05,49,13.80
2018,07,04,05,50,13.80
2018,07,04,05,51,13.90
2018,07,04,05,52,13.90
2018,07,04,05,53,13.90
2018,07,04,05,54,13.90
2018,07,04,05,55,13.90
2018,07,04,05,56,13.90
2018,07,04,05,57,13.90
2018,07,04,05,58,13.90
2018,07,04,05,59,13.90
2018,07,04,06,00,14.00
2018,07,04,06,01,14.00
2018,07,04,06,02,14.00
2018,07,04,06,03,14.10
2018,07,04,06,04,14.10
2018,07,04,06,05,14.10
2018,07,04,06,06,14.10
2018,07,04,06,07,14.20
2018,07,04,06,08,14.20
2018,07,04,06,09,14.20
2018,07,04,06,10,14.30
2018,07,04,06,11,14.30
2018,07,04,06,12,14.30
2018,07,04,06,13,14.30
2018,07,04,06,14,14.40
2018,07,04,06,15,14.40
2018,07,04,06,16,14.40
2018,07,04,06,17,14.40
2018,07,04,06,18,14.50
2018,07,04,06,19,14.50
2018,07,04,06,20,14.50
2018,07,04,06,21,14.50
2018,07,04,06,22,14.60
2018,07,04,06,23,14.60
2018,07,04,06,24,14.60
2018,07,04,06,25,14.60
2018,07,04,06,26,14.60
2018,07,04,06,27,14.60
2018,07,04,06,28,14.60
2018,07,04,06,29,14.60
2018,07,04,06,30,14.60
2018,07,04,06,31,14.70
2018,07,04,06,32,14.70
2018,07,04,06,33,14.80
2018,07,04,06,34,14.80
2018,07,04,06,35,14.80
2018,07,04,06,36,14.80
2018,07,04,06,37,14.80
2018,07,04,06,38,14.90
2018,07,04,06,39,14.90
2018,07,04,06,40,14.90
2018,07,04,06,41,15.00
2018,07,04,06,42,15.10
2018,07,04,06,43,15.10
2018,07,04,06,44,15.20
2018,07,04,06,45,15.20
2018,07,04,06,46,15.20
2018,07,04,06,47,15.30
2018,07,04,06,48,15.30
2018,07,04,06,49,15.30
2018,07,04,06,50,15.30
2018,07,04,06,51,15.20
2018,07,04,06,52,15.20
2018,07,04,06,53,15.20
2018,07,04,06,54,15.20
2018,07,04,06,55,15.10
2018,07,04,06,56,15.10
2018,07,04,06,57,15.10
2018,07,04,06,58,15.10
2018,07,04,06,59,15.10
2018,07,04,07,00,15.00
2018,07,04,07,01,15.00
2018,07,04,07,02,15.00
2018,07,04,07,03,15.00
2018,07,04,07,04,15.00
2018,07,04,07,05,15.00
2018,07,04,07,06,15.00
2018,07,04,07,07,15.00
2018,07,04,07,08,15.00
2018,07,04,07,09,15.00
2018,07,04,07,10,15.10
2018,07,04,07,11,15.10
2018,07,04,07,12,15.10
2018,07,04,07,13,15.10
2018,07,04,07,14,15.10
2018,07,04,07,15,15.20
2018,07,04,07,16,15.20
2018,07,04,07,17,15.20
2018,07,04,07,18,15.20
2018,07,04,07,19,15.30
2018,07,04,07,20,15.40
2018,07,04,07,21,15.40
2018,07,04,07,22,15.40
2018,07,04,07,23,15.50
2018,07,04,07,24,15.60
2018,07,04,07,25,15.60
2018,07,04,07,26,15.60
2018,07,04,07,27,15.70
2018,07,04,07,28,15.70
2018,07,04,07,29,15.80
2018,07,04,07,30,15.80
2018,07,04,07,31,15.80
2018,07,04,07,32,15.80
2018,07,04,07,33,15.80
2018,07,04,07,34,15.80
2018,07,04,07,35,15.80
2018,07,04,07,36,15.80
2018,07,04,07,37,15.80
2018,07,04,07,38,15.80
2018,07,04,07,39,15.80
2018,07,04,07,40,15.80
2018,07,04,07,41,15.80
2018,07,04,07,42,15.80
2018,07,04,07,43,15.80
2018,07,04,07,44,15.80
2018,07,04,07,45,15.80
2018,07,04,07,46,15.80
2018,07,04,07,47,15.80
2018,07,04,07,48,15.80
2018,07,04,07,49,15.80
2018,07,04,07,50,15.80
2018,07,04,07,51,15.80
2018,07,04,07,52,15.80
2018,07,04,07,53,15.80
2018,07,04,07,54,15.80
2018,07,04,07,55,15.90
2018,07,04,07,56,15.90
2018,07,04,07,57,15.90
2018,07,04,07,58,15.90
2018,07,04,07,59,15.90
2018,07,04,08,00,15.90
2018,07,04,08,01,15.90
2018,07,04,08,02,16.00
2018,07,04,08,03,16.00
2018,07,04,08,04,16.00
2018,07,04,08,05,16.00
2018,07,04,08,06,16.00
2018,07,04,08,07,16.10
2018,07,04,08,08,16.10
2018,07,04,08,09,16.10
2018,07,04,08,10,16.10
2018,07,04,08,11,16.10
2018,07,04,08,12,16.10
2018,07,04,08,13,16.10
2018,07,04,08,14,16.10
2018,07,04,08,15,16.10
2018,07,04,08,16,16.10
2018,07,04,08,17,16.20
2018,07,04,08,18,16.20
2018,07,04,08,19,16.20
2018,07,04,08,20,16.20
2018,07,04,08,21,16.20
2018,07,04,08,22,16.20
2018,07,04,08,23,16.20
2018,07,04,08,24,16.20
2018,07,04,08,25,16.20
2018,07,04,08,26,16.20
2018,07,04,08,27,16.30
2018,07,04,08,28,16.30
2018,07,04,08,29,16.30
2018,07,04,08,30,16.30
2018,07,04,08,31,16.40
2018,07,04,08,32,16.40
2018,07,04,08,33,16.40
2018,07,04,08,34,16.50
2018,07,04,08,35,16.50
2018,07,04,08,36,16.50
2018,07,04,08,37,16.50
2018,07,04,08,38,16.50
2018,07,04,08,39,16.60
2018,07,04,08,40,16.70
2018,07,04,08,41,16.70
2018,07,04,08,42,16.70
2018,07,04,08,43,16.80
2018,07,04,08,44,16.80
2018,07,04,08,45,16.80
2018,07,04,08,46,16.80
2018,07,04,08,47,16.80
2018,07,04,08,48,16.90
2018,07,04,08,49,16.90
2018,07,04,08,50,16.90
2018,07,04,08,51,17.00
2018,07,04,08,52,17.00
2018,07,04,08,53,17.00
2018,07,04,08,54,17.00
2018,07,04,08,55,17.10
2018,07,04,08,56,17.10
2018,07,04,08,57,17.10
2018,07,04,08,58,17.10
2018,07,04,08,59,17.10
2018,07,04,09,00,17.10
2018,07,04,09,01,17.20
2018,07,04,09,02,17.20
2018,07,04,09,03,17.20
2018,07,04,09,04,17.20
2018,07,04,09,05,17.20
2018,07,04,09,06,17.20
2018,07,04,09,07,17.30
2018,07,04,09,08,17.30
2018,07,04,09,09,17.30
2018,07,04,09,10,17.30
2018,07,04,09,11,17.30
2018,07,04,09,12,17.30
2018,07,04,09,13,17.40
2018,07,04,09,14,17.40
2018,07,04,09,15,17.40
2018,07,04,09,16,17.40
2018,07,04,09,17,17.40
2018,07,04,09,18,17.40
2018,07,04,09,19,17.40
2018,07,04,09,20,17.40
2018,07,04,09,21,17.40
2018,07,04,09,22,17.40
2018,07,04,09,23,17.40
2018,07,04,09,24,17.40
2018,07,04,09,25,17.40
2018,07,04,09,26,17.40
2018,07,04,09,27,17.40
2018,07,04,09,28,17.40
2018,07,04,09,29,17.30
2018,07,04,09,30,17.40
2018,07,04,09,31,17.40
2018,07,04,09,32,17.40
2018,07,04,09,33,17.30
2018,07,04,09,34,17.30
2018,07,04,09,35,17.30
2018,07,04,09,36,17.40
2018,07,04,09,37,17.40
2018,07,04,09,38,17.40
2018,07,04,09,39,17.40
2018,07,04,09,40,17.40
2018,07,04,09,41,17.40
2018,07,04,09,42,17.40
2018,07,04,09,43,17.40
2018,07,04,09,44,17.40
2018,07,04,09,45,17.40
2018,07,04,09,46,17.50
2018,07,04,09,47,17.50
2018,07,04,09,48,17.50
2018,07,04,09,49,17.60
2018,07,04,09,50,17.60
2018,07,04,09,51,17.60
2018,07,04,09,52,17.60
2018,07,04,09,53,17.60
2018,07,04,09,54,17.70
2018,07,04,09,55,17.70
2018,07,04,09,56,17.70
2018,07,04,09,57,17.70
2018,07,04,09,58,17.80
2018,07,04,09,59,17.80
2018,07,04,10,00,17.80
2018,07,04,10,01,17.80
2018,07,04,10,02,17.80
2018,07,04,10,03,17.90
2018,07,04,10,04,17.90
2018,07,04,10,05,17.90
2018,07,04,10,06,17.90
2018,07,04,10,07,17.90
2018,07,04,10,08,17.90
2018,07,04,10,09,17.90
2018,07,04,10,10,17.90
2018,07,04,10,11,17.90
2018,07,04,10,12,17.90
2018,07,04,10,13,17.90
2018,07,04,10,14,17.90
2018,07,04,10,15,17.90
2018,07,04,10,16,17.90
2018,07,04,10,17,17.90
2018,07,04,10,18,17.90
2018,07,04,10,19,17.90
2018,07,04,10,20,17.90
2018,07,04,10,21,17.90
2018,07,04,10,22,17.90
2018,07,04,10,23,17.90
2018,07,04,10,24,17.90
2018,07,04,10,25,17.90
2018,07,04,10,26,17.90
2018,07,04,10,27,18.00
2018,07,04,10,28,18.00
2018,07,04,10,29,18.00
2018,07,04,10,30,18.00
2018,07,04,10,31,18.10
2018,07,04,10,32,18.10
2018,07,04,10,33,18.10
2018,07,04,10,34,18.10
2018,07,04,10,35,18.10
2018,07,04,10,36,18.20
2018,07,04,10,37,18.20
2018,07,04,10,38,18.20
2018,07,04,10,39,18.20
2018,07,04,10,40,18.20
2018,07,04,10,41,18.30
2018,07,04,10,42,18.30
2018,07,04,10,43,18.30
2018,07,04,10,44,18.30
2018,07,04,10,45,18.40
2018,07,04,10,46,18.40
2018,07,04,10,47,18.40
2018,07,04,10,48,18.40
2018,07,04,10,49,18.50
2018,07,04,10,50,18.50
2018,07,04,10,51,18.50
2018,07,04,10,52,18.60
2018,07,04,10,53,18.60
2018,07,04,10,54,18.60
2018,07,04,10,55,18.60
2018,07,04,10,56,18.70
2018,07,04,10,57,18.70
2018,07,04,10,58,18.70
2018,07,04,10,59,18.80
2018,07,04,11,00,18.80
2018,07,04,11,01,18.80
2018,07,04,11,02,18.90
2018,07,04,11,03,18.90
2018,07,04,11,04,18.90
2018,07,04,11,05,19.00
2018,07,04,11,06,19.00
2018,07,04,11,07,19.00
2018,07,04,11,08,19.10
2018,07,04,11,09,19.10
2018,07,04,11,10,19.10
2018,07,04,11,11,19.20
2018,07,04,11,12,19.20
2018,07,04,11,13,19.20
2018,07,04,11,14,19.20
2018,07,04,11,15,19.20
2018,07,04,11,16,19.20
2018,07,04,11,17,19.20
2018,07,04,11,18,19.20
2018,07,04,11,19,19.30
2018,07,04,11,20,19.30
2018,07,04,11,21,19.30
2018,07,04,11,22,19.30
2018,07,04,11,23,19.30
2018,07,04,11,24,19.30
2018,07,04,11,25,19.40
2018,07,04,11,26,19.40
2018,07,04,11,27,19.40
2018,07,04,11,28,19.50
2018,07,04,11,29,19.50
2018,07,04,11,30,19.50
2018,07,04,11,31,19.50
2018,07,04,11,32,19.50
2018,07,04,11,33,19.50
2018,07,04,11,34,19.60
2018,07,04,11,35,19.60
2018,07,04,11,36,19.60
2018,07,04,11,37,19.60
2018,07,04,11,38,19.60
2018,07,04,11,39,19.70
2018,07,04,11,40,19.70
2018,07,04,11,41,19.70
2018,07,04,11,42,19.70
2018,07,04,11,43,19.80
2018,07,04,11,44,19.80
2018,07,04,11,45,19.80
2018,07,04,11,46,19.80
2018,07,04,11,47,19.80
2018,07,04,11,48,19.80
2018,07,04,11,49,19.80
2018,07,04,11,50,19.90
2018,07,04,11,51,19.80
2018,07,04,11,52,19.80
2018,07,04,11,53,19.80
2018,07,04,11,54,19.80
2018,07,04,11,55,19.80
2018,07,04,11,56,19.80
2018,07,04,11,57,19.80
2018,07,04,11,58,19.80
2018,07,04,11,59,19.80
2018,07,04,12,00,19.80
2018,07,04,12,01,19.80
2018,07,04,12,02,19.90
2018,07,04,12,03,19.80
2018,07,04,12,04,19.80
2018,07,04,12,05,19.80
2018,07,04,12,06,19.80
2018,07,04,12,07,19.80
2018,07,04,12,08,19.80
2018,07,04,12,09,19.80
2018,07,04,12,10,19.80
2018,07,04,12,11,19.80
2018,07,04,12,12,19.80
2018,07,04,12,13,19.80
2018,07,04,12,14,19.80
2018,07,04,12,15,19.80
2018,07,04,12,16,19.80
2018,07,04,12,17,19.80
2018,07,04,12,18,19.90
2018,07,04,12,19,19.90
2018,07,04,12,20,19.90
2018,07,04,12,21,19.90
2018,07,04,12,22,19.90
2018,07,04,12,23,19.90
2018,07,04,12,24,20.00
2018,07,04,12,25,20.00
2018,07,04,12,26,20.00
2018,07,04,12,27,20.10
2018,07,04,12,28,20.10
2018,07,04,12,29,20.10
2018,07,04,12,30,20.10
2018,07,04,12,31,20.10
2018,07,04,12,32,20.10
2018,07,04,12,33,20.10
2018,07,04,12,34,20.10
2018,07,04,12,35,20.10
2018,07,04,12,36,20.10
2018,07,04,12,37,20.20
2018,07,04,12,38,20.20
2018,07,04,12,39,20.20
2018,07,04,12,40,20.20
2018,07,04,12,41,20.30
2018,07,04,12,42,20.30
2018,07,04,12,43,20.30
2018,07,04,12,44,20.30
2018,07,04,12,45,20.40
2018,07,04,12,46,20.40
2018,07,04,12,47,20.40
2018,07,04,12,48,20.50
2018,07,04,12,49,20.60
2018,07,04,12,50,20.60
2018,07,04,12,51,20.60
2018,07,04,12,52,20.70
2018,07,04,12,53,20.70
2018,07,04,12,54,20.70
2018,07,04,12,55,20.70
2018,07,04,12,56,20.70
2018,07,04,12,57,20.70
2018,07,04,12,58,20.70
2018,07,04,12,59,20.80
2018,07,04,13,00,20.80
2018,07,04,13,01,20.80
2018,07,04,13,02,20.90
2018,07,04,13,03,21.00
2018,07,04,13,04,21.10
2018,07,04,13,05,21.10
2018,07,04,13,06,21.20
2018,07,04,13,07,21.30
2018,07,04,13,08,21.30
2018,07,04,13,09,21.30
2018,07,04,13,10,21.40
2018,07,04,13,11,21.50
2018,07,04,13,12,21.60
2018,07,04,13,13,21.70
2018,07,04,13,14,21.80
2018,07,04,13,15,21.90
2018,07,04,13,16,22.00
2018,07,04,13,17,22.10
2018,07,04,13,18,22.20
2018,07,04,13,19,22.20
2018,07,04,13,20,22.30
2018,07,04,13,21,22.30
2018,07,04,13,22,22.30
2018,07,04,13,23,22.30
2018,07,04,13,24,22.40
2018,07,04,13,25,22.40
2018,07,04,13,26,22.50
2018,07,04,13,27,22.50
2018,07,04,13,28,22.60
2018,07,04,13,29,22.60
2018,07,04,13,30,22.60
2018,07,04,13,31,22.70
2018,07,04,13,32,22.70
2018,07,04,13,33,22.80
2018,07,04,13,34,22.80
2018,07,04,13,35,23.00
2018,07,04,13,36,23.00
2018,07,04,13,37,23.10
2018,07,04,13,38,23.20
2018,07,04,13,39,23.30
2018,07,04,13,40,23.40
2018,07,04,13,41,23.50
2018,07,04,13,42,23.50
2018,07,04,13,43,23.50
2018,07,04,13,44,23.60
2018,07,04,13,45,23.50
2018,07,04,13,46,23.50
2018,07,04,13,47,23.50
2018,07,04,13,48,23.40
2018,07,04,13,49,23.40
2018,07,04,13,50,23.40
2018,07,04,13,51,23.40
2018,07,04,13,52,23.40
2018,07,04,13,53,23.40
2018,07,04,13,54,23.40
2018,07,04,13,55,23.40
2018,07,04,13,56,23.50
2018,07,04,13,57,23.50
2018,07,04,13,58,23.50
2018,07,04,13,59,23.50
2018,07,04,14,00,23.60
2018,07,04,14,01,23.60
2018,07,04,14,02,23.70
2018,07,04,14,03,23.70
2018,07,04,14,04,23.70
2018,07,04,14,05,23.70
2018,07,04,14,06,23.80
2018,07,04,14,07,23.80
2018,07,04,14,08,23.90
2018,07,04,14,09,24.00
2018,07,04,14,10,24.00
2018,07,04,14,11,24.10
2018,07,04,14,12,24.10
2018,07,04,14,13,24.20
2018,07,04,14,14,24.30
2018,07,04,14,15,24.30
2018,07,04,14,16,24.30
2018,07,04,14,17,24.40
2018,07,04,14,18,24.40
2018,07,04,14,19,24.40
2018,07,04,14,20,24.40
2018,07,04,14,21,24.40
2018,07,04,14,22,24.40
2018,07,04,14,23,24.30
2018,07,04,14,24,24.20
2018,07,04,14,25,24.20
2018,07,04,14,26,24.20
2018,07,04,14,27,24.20
2018,07,04,14,28,24.20
2018,07,04,14,29,24.20
2018,07,04,14,30,24.20
2018,07,04,14,31,24.20
2018,07,04,14,32,24.20
2018,07,04,14,33,24.20
2018,07,04,14,34,24.20
2018,07,04,14,35,24.20
2018,07,04,14,36,24.30
2018,07,04,14,37,24.30
2018,07,04,14,38,24.40
2018,07,04,14,39,24.50
2018,07,04,14,40,24.60
2018,07,04,14,41,24.70
2018,07,04,14,42,24.80
2018,07,04,14,43,24.80
2018,07,04,14,44,24.90
2018,07,04,14,45,25.00
2018,07,04,14,46,25.10
2018,07,04,14,47,25.10
2018,07,04,14,48,25.20
2018,07,04,14,49,25.30
2018,07,04,14,50,25.40
2018,07,04,14,51,25.50
2018,07,04,14,52,25.60
2018,07,04,14,53,25.60
2018,07,04,14,54,25.70
2018,07,04,14,55,25.80
2018,07,04,14,56,25.80
2018,07,04,14,57,25.80
2018,07,04,14,58,25.80
2018,07,04,14,59,25.80
2018,07,04,15,00,25.80
2018,07,04,15,01,25.70
2018,07,04,15,02,25.70
2018,07,04,15,03,25.70
2018,07,04,15,04,25.70
2018,07,04,15,05,25.70
2018,07,04,15,06,25.70
2018,07,04,15,07,25.80
2018,07,04,15,08,25.80
2018,07,04,15,09,25.90
2018,07,04,15,10,26.00
2018,07,04,15,11,26.00
2018,07,04,15,12,26.00
2018,07,04,15,13,26.00
2018,07,04,15,14,25.90
2018,07,04,15,15,25.90
2018,07,04,15,16,25.90
2018,07,04,15,17,25.80
2018,07,04,15,18,25.70
2018,07,04,15,19,25.60
2018,07,04,15,20,25.50
2018,07,04,15,21,25.40
2018,07,04,15,22,25.30
2018,07,04,15,23,25.30
2018,07,04,15,24,25.10
2018,07,04,15,25,25.00
2018,07,04,15,26,24.90
2018,07,04,15,27,24.80
2018,07,04,15,28,24.70
2018,07,04,15,29,24.60
2018,07,04,15,30,24.60
2018,07,04,15,31,24.50
2018,07,04,15,32,24.50
2018,07,04,15,33,24.50
2018,07,04,15,34,24.50
2018,07,04,15,35,24.50
2018,07,04,15,36,24.50
2018,07,04,15,37,24.50
2018,07,04,15,38,24.50
2018,07,04,15,39,24.60
2018,07,04,15,40,24.70
2018,07,04,15,41,24.70
2018,07,04,15,42,24.80
2018,07,04,15,43,24.80
2018,07,04,15,44,24.80
2018,07,04,15,45,24.90
2018,07,04,15,46,24.90
2018,07,04,15,47,24.90
2018,07,04,15,48,24.90
2018,07,04,15,49,24.90
2018,07,04,15,50,24.90
2018,07,04,15,51,24.90
2018,07,04,15,52,24.90
2018,07,04,15,53,24.90
2018,07,04,15,54,24.90
2018,07,04,15,55,24.90
2018,07,04,15,56,24.90
2018,07,04,15,57,24.90
2018,07,04,15,58,24.90
2018,07,04,15,59,24.90
2018,07,04,16,00,24.90
2018,07,04,16,01,24.80
2018,07,04,16,02,24.80
2018,07,04,16,03,24.80
2018,07,04,16,04,24.80
2018,07,04,16,05,24.80
2018,07,04,16,06,24.80
2018,07,04,16,07,24.80
2018,07,04,16,08,24.80
2018,07,04,16,09,24.90
2018,07,04,16,10,24.90
2018,07,04,16,11,24.90
2018,07,04,16,12,24.90
2018,07,04,16,13,24.90
2018,07,04,16,14,24.90
2018,07,04,16,15,24.90
2018,07,04,16,16,24.80
2018,07,04,16,17,24.80
2018,07,04,16,18,24.80
2018,07,04,16,19,24.70
2018,07,04,16,20,24.70
2018,07,04,16,21,24.70
2018,07,04,16,22,24.60
2018,07,04,16,23,24.50
2018,07,04,16,24,24.40
2018,07,04,16,25,24.40
2018,07,04,16,26,24.20
2018,07,04,16,27,24.20
2018,07,04,16,28,24.10
2018,07,04,16,29,24.10
2018,07,04,16,30,24.00
2018,07,04,16,31,24.00
2018,07,04,16,32,23.90
2018,07,04,16,33,23.90
2018,07,04,16,34,23.80
2018,07,04,16,35,23.80
2018,07,04,16,36,23.80
2018,07,04,16,37,23.70
2018,07,04,16,38,23.70
2018,07,04,16,39,23.60
2018,07,04,16,40,23.60
2018,07,04,16,41,23.60
2018,07,04,16,42,23.60
2018,07,04,16,43,23.50
2018,07,04,16,44,23.50
2018,07,04,16,45,23.50
2018,07,04,16,46,23.50
2018,07,04,16,47,23.50
2018,07,04,16,48,23.50
2018,07,04,16,49,23.50
2018,07,04,16,50,23.50
2018,07,04,16,51,23.50
2018,07,04,16,52,23.50
2018,07,04,16,53,23.50
2018,07,04,16,54,23.50
2018,07,04,16,55,23.50
2018,07,04,16,56,23.60
2018,07,04,16,57,23.60
2018,07,04,16,58,23.60
2018,07,04,16,59,23.60
2018,07,04,17,00,23.60
2018,07,04,17,01,23.50
2018,07,04,17,02,23.50
2018,07,04,17,03,23.50
2018,07,04,17,04,23.50
2018,07,04,17,05,23.40
2018,07,04,17,06,23.40
2018,07,04,17,07,23.40
2018,07,04,17,08,23.40
2018,07,04,17,09,23.40
2018,07,04,17,10,23.40
2018,07,04,17,11,23.40
2018,07,04,17,12,23.40
2018,07,04,17,13,23.40
2018,07,04,17,14,23.40
2018,07,04,17,15,23.40
2018,07,04,17,16,23.40
2018,07,04,17,17,23.40
2018,07,04,17,18,23.40
2018,07,04,17,19,23.40